Flag for Germany Weather past 2 weeks in Sonneberg, Thuringia, Germany

Now
54 °F

Sunny.


Feels Like: 51 °F
Forecast: 43 / 56 °F
Wind: 9 mph from Southwest

Location: Hof Airport

Current Time: Aug 23, 2014 at 10:02:34 AM

Latest Report: Aug 23, 2014 at 9:20 AM


Visibility: 10 mi

Pressure: 29.95 "Hg

Humidity: 72%

Dew point: 45 °F

Location of SonnebergLocation

Historic Weather in Sonneberg — Graph

°F

Sonneberg temperature yesterday

Maximum temperature yesterday: 63 °F (at 3:20 PM)
Minimum temperature yesterday: 43 °F (at 12:50 AM)
Average temperature yesterday: 53 °F

Past Weeks' High & Low Weather Summary

 TemperatureHumidityPressure
High81 °F (Aug 10, 3:20 PM)94% (Aug 9, 1:20 AM)30.09 "Hg (Aug 9, 1:20 AM)
Low41 °F (Aug 21, 5:20 AM)36% (Aug 8, 1:50 PM)29.68 "Hg (Aug 13, 5:50 PM)
Average57 °F72%29.94 "Hg
* Reported Aug 8 8:20 AM — Aug 23 8:50 AM, Sonneberg, Weather by CustomWeather, © 2014

Note: Actual official high and low records may vary slightly from our data, if they occured in-between our weather recording intervals... More about our weather records

Advertising

Sonneberg weather history for previous 24 hours

 ConditionsComfort  
Time TempWeatherWind HumidityBarometerVisibility
8:50 AM
Aug 23
54 °FSunny.9 mph67%29.95 "Hg10 mi
8:20 AM52 °FBroken clouds.9 mph72%29.95 "HgN/A
7:50 AM52 °FBroken clouds.7 mph67%29.95 "HgN/A
7:20 AM52 °FMostly cloudy.9 mph67%29.95 "HgN/A
6:50 AM52 °FPassing clouds.8 mph67%29.95 "HgN/A
6:20 AM52 °FPassing clouds.8 mph67%29.95 "HgN/A
5:50 AM54 °FLight rain. Overcast.8 mph63%29.95 "HgN/A
5:20 AM54 °FPassing clouds.9 mph63%29.95 "HgN/A
4:50 AM54 °FMostly cloudy.8 mph63%29.95 "HgN/A
4:20 AM54 °FMostly cloudy.9 mph58%29.95 "HgN/A
3:50 AM52 °FPassing clouds.9 mph62%29.95 "HgN/A
3:20 AM52 °FPassing clouds.9 mph62%29.95 "HgN/A
2:50 AM52 °FPassing clouds.8 mph62%29.95 "HgN/A
2:20 AM48 °FPassing clouds.5 mph76%29.95 "HgN/A
1:50 AM46 °FPassing clouds.6 mph76%29.95 "HgN/A
1:20 AM46 °FCool.5 mph82%29.98 "HgN/A
12:50 AM46 °FPassing clouds.5 mph82%29.98 "HgN/A
12:20 AM48 °FOvercast.3 mph82%29.98 "HgN/A
11:50 PM
Aug 22
48 °FPassing clouds.3 mph82%29.98 "HgN/A
11:20 PM48 °FCool.5 mph82%29.98 "HgN/A
10:50 PM46 °FCool.3 mph87%29.98 "HgN/A
10:20 PM48 °FCool.3 mph87%29.98 "HgN/A
9:50 PM50 °FPassing clouds.3 mph82%29.98 "HgN/A
9:20 PM54 °FMostly cloudy.3 mph67%29.98 "HgN/A
8:50 PM55 °FPartly sunny.6 mph59%29.98 "HgN/A
8:20 PM57 °FPartly sunny.5 mph51%29.95 "HgN/A
7:50 PM59 °FSunny.6 mph48%29.95 "Hg10 mi
7:20 PM61 °FSunny.7 mph42%29.95 "Hg10 mi
6:50 PM59 °FPassing clouds.7 mph45%29.95 "HgN/A
6:20 PM61 °FPassing clouds.9 mph39%29.95 "HgN/A
5:50 PM63 °FPassing clouds.10 mph39%29.98 "HgN/A
5:20 PM63 °FPassing clouds.7 mph39%29.98 "HgN/A
4:50 PM61 °FPassing clouds.10 mph42%29.98 "HgN/A
4:20 PM63 °FPassing clouds.10 mph39%29.98 "HgN/A
3:50 PM63 °FPassing clouds.12 mph42%29.98 "HgN/A
3:20 PM63 °FPassing clouds.12 mph39%29.98 "HgN/A
2:50 PM61 °FPassing clouds.10 mph42%29.98 "HgN/A
2:20 PM61 °FPassing clouds.12 mph39%29.98 "HgN/A
1:50 PM61 °FBroken clouds.12 mph45%30.01 "HgN/A
1:20 PM61 °FPassing clouds.12 mph42%30.01 "HgN/A
12:50 PM61 °FPassing clouds.10 mph42%30.01 "HgN/A
12:20 PM59 °FPassing clouds.9 mph45%30.01 "HgN/A
11:50 AM59 °FPassing clouds.10 mph45%30.01 "HgN/A
11:20 AM59 °FPassing clouds.8 mph45%30.01 "HgN/A
10:50 AM59 °FPassing clouds.7 mph51%30.01 "HgN/A
10:20 AM59 °FPassing clouds.7 mph55%30.01 "HgN/A
Weather by CustomWeather, © 2014

See weather overviewHow to use our weather pages